This demonstration page uses our WeatherBlox Daily Observations layout. Learn more.

Left ArrowRight Arrow

40.92945, -100.16068

Hourly Observations for September 11, 2020

Temp ( °F °C ) Dew Point ( °F °C ) Humidity (%) Winds ( mph kmh ) Pressure ( in mb ) Visibility ( mi km ) Precip ( " mm )
12:15 am 00:15 Cloudy 52 10.9 47 8.6 86 86 ESE 7 11 30.30 1026 10 16 0.00 0.00
12:35 am 00:35 Cloudy 51 10.7 48 8.7 88 88 ESE 9 15 30.29 1026 10 16 0.00 0.00
12:55 am 00:55 Cloudy 51 10.5 48 8.9 90 90 E 8 13 30.29 1026 10 16 0.00 0.00
1:15 am 01:15 Cloudy 51 10.5 48 9 91 91 ESE 7 11 30.29 1026 10 16 0.00 0.00
1:35 am 01:35 Cloudy with Light Rain 51 10.5 48 9 91 91 SE 5 7 30.29 1026 10 16 0.00 0.00
1:55 am 01:55 Cloudy with Light Rain 51 10.4 49 9.2 92 92 SSE 3 6 30.29 1026 10 16 0.00 0.00
2:15 am 02:15 Cloudy with Light Rain 51 10.3 49 9.2 93 93 SSE 3 6 30.29 1026 10 16 0.01 0.25
2:35 am 02:35 Cloudy 50 10.2 49 9.2 94 94 Calm 30.29 1026 10 16 0.01 0.25
2:55 am 02:55 Cloudy 50 10.2 49 9.5 95 95 S 3 6 30.29 1026 7 11 0.01 0.25
3:15 am 03:15 Cloudy with Mist and Fog 50 10 49 9.5 97 97 Calm 30.28 1025 4 6 0.00 0.00
3:35 am 03:35 Cloudy 50 10.2 49 9.6 96 96 Calm 30.27 1025 10 16 0.00 0.00
3:55 am 03:55 Cloudy 50 10.2 49 9.4 95 95 SSE 3 6 30.26 1025 7 11 0.00 0.00
4:15 am 04:15 Cloudy with Nearby Thunderstorms 50 10.2 49 9.5 95 95 Calm 30.25 1024 7 11 0.00 0.00
4:35 am 04:35 Cloudy 50 10.2 49 9.5 95 95 Calm 30.25 1024 10 16 0.00 0.00
4:55 am 04:55 Cloudy 50 10.2 49 9.5 95 95 Calm 30.25 1024 10 16 0.00 0.00
5:15 am 05:15 Cloudy 50 10.2 49 9.5 95 95 Calm 30.24 1024 10 16 0.00 0.00
5:35 am 05:35 Cloudy 51 10.3 49 9.5 95 95 S 3 6 30.24 1024 10 16 0.00 0.00
5:55 am 05:55 Cloudy 51 10.3 49 9.5 95 95 S 3 6 30.24 1024 10 16 0.00 0.00
6:15 am 06:15 Cloudy 51 10.3 49 9.5 95 95 S 5 7 30.24 1024 10 16 0.00 0.00
6:35 am 06:35 Cloudy 51 10.3 49 9.6 95 95 Calm 30.22 1023 10 16 0.00 0.00
6:55 am 06:55 Cloudy 51 10.3 49 9.6 95 95 S 3 6 30.22 1023 10 16 0.00 0.00
7:15 am 07:15 Cloudy 51 10.3 49 9.6 95 95 Calm 30.22 1023 7 11 0.00 0.00
7:35 am 07:35 Cloudy 51 10.5 49 9.6 94 94 Calm 30.22 1023 10 16 0.00 0.00
7:55 am 07:55 Cloudy 51 10.5 49 9.5 94 94 S 3 6 30.21 1023 7 11 0.00 0.00
8:15 am 08:15 Cloudy 51 10.5 49 9.6 94 94 S 5 7 30.21 1023 10 16 0.00 0.00
8:35 am 08:35 Cloudy 51 10.6 49 9.5 93 93 S 5 7 30.21 1023 10 16 0.00 0.00
8:55 am 08:55 Cloudy 51 10.8 49 9.6 92 92 S 6 9 30.19 1022 10 16 0.00 0.00
9:15 am 09:15 Cloudy 52 11.1 49 9.6 91 91 S 6 9 30.19 1022 10 16 0.00 0.00
9:35 am 09:35 Cloudy 52 11.2 49 9.5 89 89 S 5 7 30.19 1022 10 16 0.00 0.00
9:55 am 09:55 Cloudy 52 11.2 49 9.5 89 89 SSW 6 9 30.19 1022 10 16 0.00 0.00
10:15 am 10:15 Cloudy 53 11.5 49 9.7 89 89 S 6 9 30.19 1022 10 16 0.00 0.00
10:35 am 10:35 Cloudy 53 11.7 49 9.7 88 88 SW 6 9 30.19 1022 10 16 0.00 0.00
10:55 am 10:55 Cloudy 54 12 50 9.8 87 87 SSW 5 7 30.17 1022 10 16 0.00 0.00
11:15 am 11:15 Cloudy 54 12 49 9.7 86 86 SSW 6 9 30.17 1022 10 16 0.00 0.00
11:35 am 11:35 Cloudy 54 12.1 50 9.8 86 86 SSW 5 7 30.17 1022 10 16 0.00 0.00
11:55 am 11:55 Cloudy 55 12.6 50 9.9 84 84 S 6 9 30.16 1021 10 16 0.00 0.00
12:15 pm 12:15 Cloudy 55 12.7 49 9.7 82 82 S 5 7 30.15 1021 10 16 0.00 0.00
12:35 pm 12:35 Cloudy 56 13.4 51 10.3 82 82 SSW 6 9 30.13 1020 10 16 0.00 0.00
12:55 pm 12:55 Cloudy 57 13.9 50 9.9 77 77 SSW 5 7 30.11 1019 10 16 0.00 0.00
1:15 pm 13:15 Cloudy 58 14.3 50 10.1 76 76 S 9 15 30.09 1019 10 16 0.00 0.00
1:35 pm 13:35 Cloudy 59 14.8 50 10 73 73 SSW 8 13 30.08 1019 10 16 0.00 0.00
1:55 pm 13:55 Cloudy 58 14.7 49 9.6 72 72 SSW 9 15 30.07 1018 10 16 0.00 0.00
2:15 pm 14:15 Cloudy 59 15 50 9.8 71 71 SSW 7 11 30.07 1018 10 16 0.00 0.00
2:35 pm 14:35 Cloudy 59 15.1 49 9.7 70 70 SW 5 7 30.05 1018 10 16 0.00 0.00
2:55 pm 14:55 Cloudy 59 15 49 9.6 70 70 SW 5 7 30.05 1017 10 16 0.00 0.00
3:15 pm 15:15 Cloudy 60 15.3 49 9.6 69 69 SW 7 11 30.03 1017 10 16 0.00 0.00
3:55 pm 15:55 Cloudy 61 16 49 9.7 66 66 WSW 5 7 30.01 1016 10 16 0.00 0.00
4:15 pm 16:15 Cloudy 62 16.5 49 9.6 64 64 SSW 3 6 30.00 1016 10 16 0.00 0.00
4:35 pm 16:35 Cloudy 63 17 50 9.9 63 63 S 5 7 29.99 1016 10 16 0.00 0.00
4:55 pm 16:55 Mostly Cloudy 64 17.5 50 10.1 62 62 S 8 13 29.97 1015 10 16 0.00 0.00
5:15 pm 17:15 Mostly Cloudy 64 17.6 50 10.1 62 62 S 5 7 29.97 1015 10 16 0.00 0.00
5:35 pm 17:35 Mostly Cloudy 64 17.6 49 9.7 60 60 S 6 9 29.96 1015 10 16 0.00 0.00
5:55 pm 17:55 Partly Cloudy 64 17.6 50 9.8 60 60 SE 6 9 29.96 1015 10 16 0.00 0.00
6:15 pm 18:15 Sunny 64 17.6 50 10.2 62 62 SE 7 11 29.96 1015 10 16 0.00 0.00
6:35 pm 18:35 Sunny 64 17.5 51 10.4 63 63 ESE 5 7 29.96 1015 10 16 0.00 0.00
6:55 pm 18:55 Mostly Cloudy 63 17.2 51 10.5 65 65 SE 6 9 29.97 1015 10 16 0.00 0.00
7:15 pm 19:15 Mostly Cloudy 63 17 51 10.5 66 66 SE 8 13 29.96 1014 10 16 0.00 0.00
7:35 pm 19:35 Partly Cloudy 61 16 51 10.8 71 71 SE 9 15 29.96 1014 10 16 0.00 0.00
7:55 pm 19:55 Clear 60 15.3 51 10.8 75 75 SE 10 17 29.96 1015 10 16 0.00 0.00
8:15 pm 20:15 Clear 58 14.6 51 10.8 78 78 SE 10 17 29.96 1015 10 16 0.00 0.00
8:35 pm 20:35 Partly Cloudy 58 14.3 52 11 81 81 SE 8 13 29.97 1015 10 16 0.00 0.00
8:55 pm 20:55 Cloudy 57 14.1 52 11 82 82 SE 6 9 29.98 1015 10 16 0.00 0.00
9:15 pm 21:15 Cloudy 58 14.3 52 11.2 82 82 SE 5 7 29.98 1015 10 16 0.00 0.00
9:35 pm 21:35 Mostly Cloudy 57 13.9 52 11 83 83 SE 7 11 29.98 1015 10 16 0.00 0.00
9:55 pm 21:55 Partly Cloudy 56 13.5 51 10.8 84 84 SE 7 11 29.98 1015 10 16 0.00 0.00
10:15 pm 22:15 Clear 56 13.2 51 10.6 84 84 SSE 5 7 29.98 1015 10 16 0.00 0.00
10:35 pm 22:35 Clear 54 12.2 51 10.5 89 89 SSE 5 7 29.99 1016 10 16 0.00 0.00
10:55 pm 22:55 Partly Cloudy 54 12.3 51 10.6 89 89 SE 6 9 29.97 1015 10 16 0.00 0.00
11:15 pm 23:15 Partly Cloudy 54 12.2 51 10.6 90 90 SSE 6 9 29.97 1015 10 16 0.00 0.00
11:35 pm 23:35 Cloudy 54 12.3 52 11 92 92 S 5 7 29.97 1015 10 16 0.00 0.00
11:55 pm 23:55 Mostly Cloudy 55 12.5 52 11.1 91 91 S 5 7 29.97 1015 10 16 0.00 0.00

Powered by AerisWeather